Weather Roundup
Issued by NWS Chicago, IL

Home | Current Version | Previous Version | Text Only | Print | Product List | Glossary Off
Versions: 1 2 3 4 5 6 7 8 9 10 11 12 13 14 15 16 17 18 19 20 21 22 23 24 25 26 27 28 29 30 31 32 33 34 35 36 37 38 39 40 41 42 43 44 45 46 47 48 49 50

000
NZUS59 KLOT 050706
HRRLOT

CHICAGO AREA WEATHER ROUNDUP
NATIONAL WEATHER SERVICE CHICAGO/ROMEOVILLE IL
100 AM CST THU MAR 05 2015

NOTE: "FAIR" INDICATES FEW OR NO CLOUDS BELOW 12,000 FEET WITH NO
SIGNIFICANT WEATHER AND/OR OBSTRUCTIONS TO VISIBILITY.

* THESE STATIONS ARE NOT UNDER NWS QUALITY CONTROL. THEY ALSO MAY NOT
  REPORT WEATHER SUCH AS PRECIPITATION OR FOG.

ILZ005-006-012>014-019>023-050800-
NORTHEAST ILLINOIS

CITY           SKY/WX    TMP DP  RH WIND       PRES   REMARKS
OHARE          PTCLDY     9  -4  55 NW12      30.36R WCI  -6
MIDWAY         PTCLDY    13  -1  54 NW10      30.36R WCI   0
AURORA         CLEAR      4  -5  66 NW9       30.38R WCI -10
LANSING*       CLEAR     13   0  55 NW8       30.36R WCI   1
JOLIET*        CLEAR      8  -2  62 N5        30.38S WCI   0
WAUKEGAN       CLEAR      3  -7  63 NW5       30.36R WCI  -6
DUPAGE AIRPORT CLEAR      8  -4  58 NW12      30.36R WCI  -7
WHEELING       CLEAR      8  -4  58 NW8       30.38R WCI  -4
KANKAKEE*      CLEAR     10   1  66 NW8       30.37S WCI  -1
MORRIS*        CLEAR      7   0  71 NW7       30.37R WCI  -5
LEWIS AIRPORT* CLEAR      9  -2  62 N8        30.37R WCI  -4
NORTHERLY IS     N/A     15   0  51 NW10        N/A  WCI   3
$$

WIZ051-052-058>065-066-070>072-050800-
SOUTHEAST WISCONSIN

CITY           SKY/WX    TMP DP  RH WIND       PRES   REMARKS
MILWAUKEE      MOCLDY     9  -9  44 NW8       30.37R WCI  -3
KENOSHA*       CLEAR      3  -9  57 NW5       30.37R WCI  -6
RACINE*        CLEAR      8 -10  43 NW3       30.39R
BURLINGTON     PTCLDY    -3 -12  67 CALM      30.37R
WAUKESHA       PTCLDY     3  -9  55 NW6       30.36R WCI  -8
WEST BEND      PTCLDY     5  -9  51 W5        30.35R WCI  -4
$$

INZ001>003-010>013-019-020-050800-
NORTHWEST INDIANA

CITY           SKY/WX    TMP DP  RH WIND       PRES   REMARKS
GARY*          CLEAR     15  -3  45 NW8       30.36R WCI   3
MICHIGAN CITY* NOT AVBL
RENSSELAER*    NOT AVBL
VALPARAISO     CLEAR     10   0  63 W6        30.33R WCI   0
$$

LMZ740>746-050800-
SOUTHERN LAKE MICHIGAN

STATION/POSITION TIME  SKY/WX   TEMP WIND        PRES    VSBY
                                AIR  DIR/SP/G
                 (UTC)          (F)  (DEG/KT/KT) (MB)    (MI)
HARRISON CRIB    0700            14  320/ 19/ 23   N/A
BURNHAM HARBOR   0700            14  330/  9/ 15   N/A
CALUMET HARBOR   0600            14  290/ 10/ 16 1026.5R
BURNS HARBOR     NOT AVBL
MICHIGAN CITY    0700            15  280/ 12/ 14   N/A
$$

ABBREVIATIONS USED IN REMARKS
   TC - TEMPERATURE IN CELSIUS
  WCI - WIND CHILL INDEX
   HX - HEAT INDEX
  VSB - VISIBILITY
$$


USA.gov is the U.S. government's official web portal to all federal, state and local government web resources and services.